Flag for Germany Weather past 2 weeks in Falkensee, Brandenburg, Germany

Now
36 °F

Partly sunny.


Feels Like: 29 °F
Forecast: 31 / 47 °F
Wind: 8 mph from Northwest

Location: Berlin-Tegel

Current Time: Feb 28, 2015 at 8:30:24 AM

Latest Report: Feb 28, 2015 at 7:50 AM


Visibility: N/A

Pressure: 30.09 "Hg

Humidity: 87%

Dew point: 32 °F

Location of FalkenseeLocation

Historic Weather in Falkensee — Graph

°F

Falkensee temperature yesterday

Maximum temperature yesterday: 50 °F (at 1:20 PM)
Minimum temperature yesterday: 30 °F (at 6:20 AM)
Average temperature yesterday: 40 °F

Past Weeks' High & Low Weather Summary

 TemperatureHumidityPressure
High52 °F (Feb 21, 11:50 AM)100% (Feb 18, 4:20 AM)30.72 "Hg (Feb 18, 4:20 AM)
Low27 °F (Feb 14, 6:20 AM)37% (Feb 27, 4:50 PM)29.39 "Hg (Feb 21, 11:50 AM)
Average37 °F77%30.01 "Hg
* Reported Feb 13 7:20 AM — Feb 28 7:20 AM, Falkensee, Weather by CustomWeather, © 2015

Note: Actual official high and low records may vary slightly from our data, if they occured in-between our weather recording intervals... More about our weather records

Advertising

Falkensee weather history for previous 24 hours

 ConditionsComfort  
Time TempWeatherWind HumidityBarometerVisibility
7:20 AM
Sat, Feb 28
36 °FPartly sunny.10 mph93%30.09 "HgN/A
6:50 AM37 °FPassing clouds.10 mph87%30.07 "HgN/A
6:20 AM37 °FPassing clouds.10 mph93%30.07 "Hg6 mi
5:50 AM37 °FDrizzle. Low clouds.9 mph93%30.07 "Hg5 mi
5:20 AM37 °FLow clouds.9 mph100%30.04 "Hg5 mi
4:20 AM37 °FPassing clouds.8 mph100%30.04 "HgN/A
3:50 AM37 °FPassing clouds.8 mph93%30.04 "HgN/A
3:20 AM37 °FPassing clouds.8 mph93%30.01 "HgN/A
2:50 AM37 °FPassing clouds.8 mph93%30.01 "HgN/A
2:20 AM37 °FPassing clouds.8 mph100%30.01 "Hg4 mi
1:50 AM37 °FPassing clouds.7 mph100%30.01 "Hg4 mi
1:20 AM37 °FLight rain. Mostly cloudy.7 mph93%30.01 "Hg4 mi
12:50 AM37 °FLight rain. Mostly cloudy.7 mph93%30.01 "Hg6 mi
12:20 AM37 °FLight rain. Partly cloudy.7 mph100%30.01 "HgN/A
11:50 PM
Fri, Feb 27
37 °FLight rain. Passing clouds.7 mph93%30.01 "HgN/A
11:20 PM37 °FLight rain. Passing clouds.8 mph93%30.01 "HgN/A
10:50 PM37 °FPassing clouds.5 mph87%30.01 "HgN/A
10:20 PM36 °FPassing clouds.3 mph87%30.01 "HgN/A
9:50 PM36 °FPassing clouds.3 mph81%29.98 "HgN/A
9:20 PM36 °FClear.5 mph81%29.98 "Hg10 mi
8:50 PM37 °FClear.3 mph75%29.98 "Hg10 mi
8:20 PM39 °FClear.3 mph70%29.98 "Hg10 mi
7:50 PM39 °FClear.3 mph65%29.95 "Hg10 mi
7:20 PM39 °FClear.3 mph65%29.95 "Hg10 mi
6:50 PM41 °FClear.5 mph61%29.95 "Hg10 mi
6:20 PM45 °FPassing clouds.7 mph49%29.95 "HgN/A
5:50 PM46 °FClear.6 mph43%29.92 "Hg10 mi
5:20 PM46 °FSunny.5 mph43%29.89 "Hg10 mi
4:50 PM50 °FSunny.6 mph37%29.89 "Hg10 mi
4:20 PM50 °FSunny.7 mph40%29.89 "Hg10 mi
3:50 PM50 °FPassing clouds.5 mph40%29.89 "HgN/A
3:20 PM50 °FSunny.8 mph43%29.89 "Hg10 mi
2:50 PM50 °FPassing clouds.7 mph40%29.89 "HgN/A
2:20 PM50 °FSunny.9 mph43%29.89 "Hg10 mi
1:50 PM50 °FSunny.6 mph43%29.89 "Hg10 mi
1:20 PM50 °FPassing clouds.7 mph40%29.89 "HgN/A
12:50 PM48 °FSunny.7 mph46%29.89 "Hg10 mi
12:20 PM48 °FSunny.8 mph46%29.89 "Hg10 mi
11:50 AM46 °FSunny.6 mph50%29.89 "Hg10 mi
11:20 AM46 °FSunny.6 mph53%29.89 "Hg10 mi
10:50 AM43 °FSunny.7 mph66%29.89 "Hg10 mi
10:20 AM41 °FSunny.6 mph66%29.92 "Hg10 mi
9:50 AM39 °FSunny.7 mph70%29.89 "Hg10 mi
9:20 AM37 °FSunny.7 mph75%29.89 "Hg10 mi
8:50 AM37 °FSunny.6 mph75%29.89 "Hg10 mi
8:20 AM36 °FSunny.3 mph81%29.89 "Hg10 mi
Weather by CustomWeather, © 2015

See weather overviewHow to use our weather pages